Nashville, TN (JWN)

Redbird FMX


Given the close proximity to downtown Nashville, Tennessee, John Tune (JWN) is a great place for the general aviation enthusiast or for someone learning how to fly. Wings of Eagles Aviation’s office is located in Hangar 1, and is accessible from the road or the ramp. The FBO is open 24 hours a day 7 days a week so there will always be someone available for help or fuel.

Address:
210 Tune Airport Dr.
Nashville, TN 37209

Phone: (615) 979-9222

Business Hours:
Monday-Sunday 7a-10p


NOAA Weather

Nashville International Airport, TN

Last Updated on Nov 28 2014, 11:53 pm CST

Current Conditions: Fair

NOAA Icon

Temp: 43°F

Wind: South at 11mph

Humidity: 43%

Windchill: 37°F

Your 5-Day Forecast at a Glance

Available data for KBNA from the past hour

METAR
KBNA 290653Z 19010KT 10SM FEW250 06/M06 A3014 RMK AO2 SLP206 T00561056